Jefferson, NC

12:07 PM EDT on April 19, 2018 (GMT -0400)
Ashe County

Weather History for KGEV - February, 2014

Change the Weather History Date:

Friday, February 28, 2014

  Actual Average Record
Temperature  
Mean Temperature 27 °F -  
Max Temperature 36 °F 48 °F 68 °F (1976)
Min Temperature 18 °F 27 °F 10 °F (2002)
Degree Days  
Heating Degree Days 38    
Moisture  
Dew Point 6 °F    
Average Humidity 42    
Maximum Humidity 57    
Minimum Humidity 28    
Precipitation  
Precipitation 0.00 in - - ()
Sea Level Pressure  
Sea Level Pressure 30.06 in    
Wind  
Wind Speed 5 mph (SE)    
Max Wind Speed 13 mph    
Max Gust Speed 18 mph    
Visibility 10 miles    
Events      
Averages and records for this station are not official NWS values.
T = Trace of Precipitation, MM = Missing Value Source: NWS Daily Summary

Daily Weather History Graph

Daily Weather History Graph

Search for Another Location

Airport or City:

Astronomy

Feb. 28, 2014 Rise Set
Actual Time 6:57 AM EST 6:19 PM EST
Civil Twilight 6:31 AM EST 6:45 PM EST
Nautical Twilight 6:01 AM EST 7:15 PM EST
Astronomical Twilight 5:31 AM EST 7:45 PM EST
Moon 6:10 AM EST (2/28) 5:54 PM EST (2/28)
Length of Visible Light 12h 13m
Length of Day
11h 21m
Waning Crescent, 1% of the Moon is Illuminated
Feb 28
Waning Crescent
Mar 1
New
Mar 8
First Quarter
Mar 16
Full
Mar 23
Last Quarter

Hourly Weather History & Observations

Time (EST) Temp. Windchill Dew Point Humidity Pressure Visibility Wind Dir Wind Speed Gust Speed Precip Events Conditions
12:15 AM 25.5 °F 14.3 °F -0.4 °F 33% 29.88 in 10.0 mi West 12.7 mph 18.4 mph N/A   Clear
12:35 AM 24.4 °F 16.5 °F 0.5 °F 36% 29.89 in 10.0 mi NW 6.9 mph - N/A   Clear
12:55 AM 24.6 °F 20.3 °F 0.7 °F 36% 29.90 in 10.0 mi NNE 3.5 mph - N/A   Clear
1:15 AM 23.5 °F 17.6 °F 1.8 °F 39% 29.91 in 10.0 mi NW 4.6 mph - N/A   Clear
1:35 AM 22.8 °F - 1.9 °F 41% 29.92 in 10.0 mi Calm Calm - N/A   Clear
1:55 AM 22.8 °F 12.9 °F 2.1 °F 41% 29.93 in 10.0 mi WNW 9.2 mph 18.4 mph N/A   Clear
2:15 AM 22.3 °F 17.6 °F 2.7 °F 43% 29.95 in 10.0 mi NNW 3.5 mph - N/A   Clear
2:35 AM 21.4 °F 15.1 °F 3.0 °F 45% 29.95 in 10.0 mi NW 4.6 mph - N/A   Clear
2:55 AM 22.5 °F - 2.5 °F 42% 29.95 in 10.0 mi Calm Calm - N/A   Clear
3:15 AM 23.0 °F 18.4 °F 2.3 °F 41% 29.94 in 10.0 mi NW 3.5 mph - N/A   Clear
3:35 AM 22.1 °F 14.7 °F 2.8 °F 43% 29.94 in 10.0 mi NE 5.8 mph - N/A   Clear
3:55 AM 21.0 °F 14.6 °F 3.2 °F 46% 29.94 in 10.0 mi NNE 4.6 mph - N/A   Clear
4:15 AM 20.1 °F 13.6 °F 3.7 °F 49% 29.95 in 10.0 mi NNE 4.6 mph - N/A   Clear
4:35 AM 19.9 °F 14.9 °F 3.7 °F 50% 29.96 in 10.0 mi NNE 3.5 mph - N/A   Clear
4:55 AM 19.2 °F 14.1 °F 3.9 °F 51% 29.96 in 10.0 mi North 3.5 mph - N/A   Clear
5:15 AM 19.0 °F - 4.1 °F 52% 29.97 in 10.0 mi Calm Calm - N/A   Clear
5:35 AM 18.9 °F - 4.1 °F 53% 29.98 in 10.0 mi Calm Calm - N/A   Clear
5:55 AM 18.0 °F 11.1 °F 4.1 °F 55% 29.99 in 10.0 mi NNW 4.6 mph - N/A   Clear
6:15 AM 18.3 °F - 4.5 °F 55% 30.00 in 10.0 mi Calm Calm - N/A   Clear
6:35 AM 18.5 °F - 4.5 °F 54% 30.00 in 10.0 mi Calm Calm - N/A   Clear
6:50 AM 19.4 °F - 4.1 °F 52% 30.01 in 10.0 mi Calm Calm - N/A   Clear
7:15 AM 18.5 °F - 4.5 °F 54% 30.03 in 10.0 mi Calm Calm - N/A   Clear
7:35 AM 18.9 °F - 4.8 °F 54% 30.04 in 10.0 mi Calm Calm - N/A   Clear
7:55 AM 19.8 °F - 5.5 °F 54% 30.06 in 10.0 mi Calm Calm - N/A   Clear
8:15 AM 20.5 °F 15.6 °F 6.4 °F 55% 30.07 in 10.0 mi SSE 3.5 mph - N/A   Clear
8:35 AM 21.9 °F 15.7 °F 7.2 °F 53% 30.08 in 10.0 mi SSE 4.6 mph - N/A   Clear
8:55 AM 23.2 °F 17.2 °F 7.0 °F 50% 30.09 in 10.0 mi South 4.6 mph - N/A   Clear
9:15 AM 24.3 °F 18.4 °F 7.0 °F 48% 30.09 in 10.0 mi SSE 4.6 mph - N/A   Clear
9:35 AM 25.0 °F 19.3 °F 6.3 °F 45% 30.10 in 10.0 mi South 4.6 mph - N/A   Clear
9:55 AM 27.0 °F 23.0 °F 7.0 °F 43% 30.10 in 10.0 mi SSE 3.5 mph - N/A   Clear
10:15 AM 27.3 °F 22.0 °F 5.5 °F 40% 30.11 in 10.0 mi SSE 4.6 mph - N/A   Clear
10:35 AM 27.9 °F 21.5 °F 5.5 °F 39% 30.10 in 10.0 mi SSE 5.8 mph - N/A   Clear
10:55 AM 28.4 °F 20.4 °F 5.5 °F 38% 30.10 in 10.0 mi ESE 8.1 mph - N/A   Clear
11:15 AM 29.5 °F 22.5 °F 6.1 °F 37% 30.11 in 10.0 mi SSE 6.9 mph - N/A   Clear
11:35 AM 30.6 °F 23.8 °F 5.9 °F 35% 30.11 in 10.0 mi SE 6.9 mph - N/A   Clear
11:55 AM 31.6 °F 24.4 °F 5.9 °F 34% 30.11 in 10.0 mi SE 8.1 mph - N/A   Clear
12:15 PM 31.6 °F 24.4 °F 5.0 °F 33% 30.12 in 10.0 mi SE 8.1 mph - N/A   Clear
12:35 PM 32.2 °F 26.7 °F 4.6 °F 31% 30.11 in 10.0 mi SE 5.8 mph - N/A   Clear
12:55 PM 32.4 °F 25.3 °F 5.0 °F 32% 30.11 in 10.0 mi SSE 8.1 mph - N/A   Clear
1:15 PM 32.9 °F 25.9 °F 4.5 °F 30% 30.10 in 10.0 mi SE 8.1 mph - N/A   Clear
1:35 PM 34.5 °F 31.6 °F 5.2 °F 29% 30.09 in 10.0 mi SSE 3.5 mph - N/A   Clear
1:55 PM 34.5 °F 28.6 °F 5.0 °F 29% 30.09 in 10.0 mi SE 6.9 mph - N/A   Clear
2:15 PM 35.6 °F 29.2 °F 5.5 °F 28% 30.09 in 10.0 mi SE 8.1 mph - N/A   Clear
2:40 PM 35.2 °F 30.3 °F 5.4 °F 29% 30.09 in 10.0 mi SE 5.8 mph 17.3 mph N/A   Clear
2:55 PM 35.6 °F 29.9 °F 5.4 °F 28% 30.09 in 10.0 mi SE 6.9 mph - N/A   Clear
3:15 PM 36.5 °F 31.0 °F 5.7 °F 28% 30.09 in 10.0 mi SE 6.9 mph - N/A   Clear
3:35 PM 36.9 °F 30.7 °F 6.3 °F 28% 30.09 in 10.0 mi SE 8.1 mph - N/A   Clear
3:55 PM 36.3 °F 31.6 °F 6.1 °F 28% 30.09 in 10.0 mi SE 5.8 mph - N/A   Clear
4:15 PM 36.0 °F 31.1 °F 5.5 °F 28% 30.09 in 10.0 mi SE 5.8 mph - N/A   Clear
4:35 PM 35.8 °F 30.1 °F 6.3 °F 29% 30.09 in 10.0 mi SE 6.9 mph - N/A   Clear
4:55 PM 34.7 °F 28.1 °F 5.9 °F 30% 30.09 in 10.0 mi SE 8.1 mph - N/A   Scattered Clouds
5:15 PM 34.5 °F 30.4 °F 7.0 °F 32% 30.10 in 10.0 mi SE 4.6 mph - N/A   Scattered Clouds
5:35 PM 34.2 °F 30.0 °F 7.3 °F 33% 30.11 in 10.0 mi SE 4.6 mph - N/A   Mostly Cloudy
5:55 PM 33.4 °F 29.1 °F 7.2 °F 33% 30.11 in 10.0 mi SSE 4.6 mph - N/A   Overcast
6:15 PM 32.5 °F - 7.7 °F 35% 30.11 in 10.0 mi Calm Calm - N/A   Mostly Cloudy
6:35 PM 32.0 °F 28.7 °F 7.7 °F 36% 30.11 in 10.0 mi SE 3.5 mph - N/A   Mostly Cloudy
6:55 PM 31.5 °F - 8.1 °F 37% 30.12 in 10.0 mi Calm Calm - N/A   Scattered Clouds
7:15 PM 30.7 °F 27.3 °F 8.8 °F 40% 30.12 in 10.0 mi SE 3.5 mph - N/A   Clear
7:35 PM 29.7 °F 24.7 °F 9.5 °F 43% 30.12 in 10.0 mi SSE 4.6 mph - N/A   Clear
7:55 PM 28.9 °F 22.8 °F 9.5 °F 44% 30.12 in 10.0 mi SSE 5.8 mph - N/A   Clear
8:15 PM 28.6 °F 23.5 °F 9.7 °F 45% 30.12 in 10.0 mi SSE 4.6 mph - N/A   Clear
8:35 PM 28.4 °F 24.6 °F 9.7 °F 46% 30.12 in 10.0 mi SSE 3.5 mph - N/A   Clear
8:55 PM 27.5 °F - 10.2 °F 48% 30.13 in 10.0 mi Calm Calm - N/A   Clear
9:15 PM 27.7 °F - 10.2 °F 48% 30.14 in 10.0 mi Calm Calm - N/A   Clear
9:35 PM 26.6 °F 21.2 °F 10.8 °F 51% 30.15 in 10.0 mi South 4.6 mph - N/A   Clear
9:55 PM 26.6 °F 22.6 °F 11.1 °F 52% 30.15 in 10.0 mi South 3.5 mph - N/A   Clear
10:15 PM 26.8 °F 22.8 °F 10.4 °F 50% 30.15 in 10.0 mi South 3.5 mph - N/A   Clear
10:35 PM 27.3 °F 23.4 °F 10.0 °F 48% 30.16 in 10.0 mi South 3.5 mph - N/A   Clear
10:55 PM 26.8 °F - 9.9 °F 49% 30.16 in 10.0 mi Calm Calm - N/A   Clear
11:15 PM 26.6 °F 22.6 °F 9.5 °F 49% 30.17 in 10.0 mi South 3.5 mph - N/A   Clear
11:35 PM 25.9 °F 21.7 °F 10.2 °F 52% 30.17 in 10.0 mi South 3.5 mph - N/A   Clear
11:55 PM 24.6 °F 20.3 °F 11.1 °F 57% 30.17 in 10.0 mi South 3.5 mph - N/A   Clear